EDSBEDDS

Guest
Details From EDSB - Karlsruhe Baden Baden
To EDDS - Stuttgart
Flight Number -
Tags decoded
Created
Modified
Stats Distance 46 nm / 84 km
Max Altitude 0 ft / 0 m
Waypoints 2
Social Downloads 0
Likes 0
Share VATSIM

Download

Looking for another format? Having issues loading an existing format? Contact us
Advertisement - Login to hide

Notes

Requested: EDSB GAGS3N EDDS Unmatched points: GAGS3N

Route

EDSB EDDS

ID Type Via Altitude Latitude Longitude Leg Dist Tot Dist Heading (true) Name
O EDSB APT - 0 ft / 0 m 48.77926˚ 8.08064˚ - 0 nm - Karlsruhe Baden Baden
O EDDS APT - 0 ft / 0 m 48.68988˚ 9.22196˚ 45 nm 45 nm 96° / 97° Stuttgart

Altitude Profile

Advertisement - Login to hide

EDSB

Details ICAO EDSB (FKB)
Name Karlsruhe Baden Baden
Region Germany - Civil
Timezone Europe/Berlin (UTC+1.0)
Stats Elevation 408 ft / 124 m (AMSL)
Location 48.779257° 8.080642°
Runways 1
Magnetic Variation 2.223° E

METAR

EDSB 150650Z 20015KT 9999 FEW041 OVC045 05/02 Q0997

Decode

TAF

TAF EDSB 150500Z 1506/1606 21010KT 9999 BKN030 TEMPO 1507/1514 22015G25KT SHRA BKN025CB BECMG 1516/1518 22005KT TEMPO 1601/1606 3000 -RADZ BKN012

Decode

Departure Runways

ID Width Length Bearing (true) Bearing (mag) Surface Threshold Offset Overrun Length
03 148 ft / 45 m 9,799 ft / 2,987 m 31.69° 29.47° Asphalt 830 ft / 253 m 115 ft / 35 m
21 148 ft / 45 m 9,799 ft / 2,987 m 211.70° 209.48° Asphalt 830 ft / 253 m 115 ft / 35 m

EDDS

Details ICAO EDDS (STR)
Name Stuttgart
Region Germany - Civil
Timezone Europe/Berlin (UTC+1.0)
Stats Elevation 1,273 ft / 388 m (AMSL)
Location 48.689876° 9.221962°
Runways 1
Magnetic Variation 2.523° E

METAR

EDDS 150650Z 19004KT 9999 FEW023 SCT045 02/01 Q0998 NOSIG

Decode

TAF

TAF TAF EDDS 150500Z 1506/1606 23010KT 9999 SCT030 PROB30 TEMPO 1511/1514 24015G25KT SHRA BKN025CB BECMG 1517/1519 24003KT

Decode

Destination Runways

ID Width Length Bearing (true) Bearing (mag) Surface Threshold Offset Overrun Length
07 148 ft / 45 m 10,950 ft / 3,337 m 73.96° 71.44° Concrete 981 ft / 299 m 157 ft / 48 m
25 148 ft / 45 m 10,950 ft / 3,337 m 253.99° 251.47° Concrete 0 ft / 0 m 157 ft / 48 m

Approach Navaids

Runway Type Ident Frequency Range Bearing (true) Bearing (mag) Slope Elevation
07 Localiser ISTE 110.90 MHz 18 nm / 33 km 73.99° 71.47° - 1,181 ft / 360 m (AMSL)
07 Glidescope ISTE 110.90 MHz 10 nm / 19 km 73.97° 71.45° 3.00° 1,267 ft / 386 m (AMSL)
07 DME ISTE 115.45 MHz 18 nm / 33 km - - - 1,332 ft / 406 m (AMSL)
25 Localiser ISTW 109.90 MHz 18 nm / 33 km 253.95° 251.42° - 1,267 ft / 386 m (AMSL)
25 Glidescope ISTW 109.90 MHz 10 nm / 19 km 253.97° 251.45° 3.00° 1,181 ft / 360 m (AMSL)
25 DME ISTW 115.45 MHz 18 nm / 33 km - - - 1,332 ft / 406 m (AMSL)

Popular Alternatives